Location: Vienna
(48.2082°N, 16.3738°E)
Time: 22:20:51
(UTC+02:00)

ISS - Pass Details

Date: 22 July 2018
Orbit: 402 x 408 km, 51.6° (Epoch: 20 July)

Event Time Altitude Azimuth Distance (km) Brightness Sun altitude
Rises 22:01:20 0° 240° (WSW) 2,313 0.2 -10.7°
Reaches altitude 10° 22:03:25 10° 238° (WSW) 1,457 -0.9 -11.0°
Maximum altitude 22:06:40 72° 155° (SSE) 429 -3.9 -11.3°
Drops below altitude 10° 22:09:56 10° 70° (ENE) 1,466 -1.2 -11.7°
Sets 22:12:02 0° 68° (ENE) 2,330 -0.2 -11.9°
